Вернуться в каталог

STARLINK-2153

АктивенСвязьVLEO
NORAD 48009·PAYLOAD·🇺🇸 United States

Запущен Mar 24, 2021 с Cape Canaveral Space Force Station

Loading…

Ближайшие Пролёты (ближайшие 24 часа)

TLE

СвежийSource: CelesTrak SupGP

Эпоха: Sep 14, 2026, 21:35 UTC

1 48009C 21024AJ  26257.89979167  .00006132  00000+0  14278-3 0  2571
2 48009  53.1572 146.8360 0001910 143.2589 355.6415 15.41701391    19

Отслеживайте STARLINK-2153 в реальном времени с AllMySat

Download on the App Store